Back to catalog

THORAD AGENA D DEB

AlivePO
NORAD 4767·DEBRIS·🇺🇸 United States

Launched Apr 8, 1970 from Vandenberg Space Force Base

Loading…

Next Passes (next 24 hours)

TLE

FreshSource: Space-Track

Epoch: Sep 14, 2026, 05:58 UTC

1 04767U 70025DM  26257.24882897  .00000238  00000-0  30462-3 0  9999
2 04767  99.9276   3.3636 0051817  10.8627  18.7225 13.73446511814402

Track THORAD AGENA D DEB in real time with AllMySat

Download on the App Store